DW4859 Weather Reports


time (UTC)temp
C
wind
direction
speed
KPH
gust
KPH
rain 1hr
cm
rain 24hr
cm
rain mn
cm
humidity
%
barometer
mb
20260504110105 -17 0.0 0.0 0.00 0.00 0.00 1013.3
20260504081506 -17 0.0 0.0 0.00 0.00 0.00 1013.6
20260504050008 -17 0.0 0.0 0.00 0.00 0.00 1014.6
20260504044504 -17 0.0 0.0 0.00 0.00 0.00 1014.4
20260504043115 -17 0.0 0.0 0.00 0.00 0.00 1014.4
20260504041556 -17 0.0 0.0 0.00 0.00 0.00 1014.3
20260504040050 -17 0.0 0.0 0.00 0.00 0.00 1014.4
20260504034546 -17 0.0 0.0 0.00 0.00 0.00 1014.5
20260504033050 -17 0.0 0.0 0.00 0.00 0.00 1014.4
20260504031537 -17 0.0 0.0 0.00 0.00 0.00 1014.5
20260504030033 -17 0.0 0.0 0.00 0.00 0.00 1014.4
20260504024541 -17 0.0 0.0 0.00 0.00 0.00 1014.3
20260504023024 -17 0.0 0.0 0.00 0.00 0.00 1014.2
20260504021519 -17 0.0 0.0 0.00 0.00 0.00 1014.2
20260504020017 -17 0.0 0.0 0.00 0.00 0.00 1014.1
20260504014510 -17 0.0 0.0 0.00 0.00 0.00 1013.9
20260504013006 -17 0.0 0.0 0.00 0.00 0.00 1013.7
20260504011502 -17 0.0 0.0 0.00 0.00 0.00 1013.4
20260504010059 -17 0.0 0.0 0.00 0.00 0.00 1013.3
20260504004606 -17 0.0 0.0 0.00 0.00 0.00 1013.3
20260504003049 -17 236 12.9 0.0 0.00 0.00 0.00 1013.2
20260504001548 22 229 11.3 0.0 0.00 0.00 0.00 53 1013.1
20260504000050 22 238 9.7 0.0 0.00 0.00 0.00 51 1012.8
20260503234547 22 239 11.3 0.0 0.00 0.00 0.00 57 1012.9
20260503233047 22 221 11.3 0.0 0.00 0.00 0.00 50 1013.0
20260503231552 22 188 9.7 0.0 0.00 0.00 0.00 52 1013.0
20260503230050 22 193 14.5 0.0 0.00 0.00 0.00 50 1012.7
20260503224545 22 196 11.3 0.0 0.00 0.00 0.00 52 1012.8
20260503223044 22 221 11.3 0.0 0.00 0.00 0.00 56 1012.8
20260503221545 22 198 12.9 0.0 0.00 0.00 0.00 52 1013.0
20260503220041 22 198 14.5 0.0 0.00 0.00 0.00 48 1013.0
20260503214540 22 232 16.1 0.0 0.00 0.00 0.00 53 1013.0
20260503213043 22 227 12.9 0.0 0.00 0.00 0.00 51 1013.1
20260503211540 23 268 9.7 0.0 0.00 0.00 0.00 45 1013.0
20260503210035 24 289 12.9 0.0 0.00 0.00 0.00 29 1013.2
20260503204533 23 317 16.1 0.0 0.00 0.00 0.00 31 1013.5
20260503203031 23 307 14.5 0.0 0.00 0.00 0.00 37 1013.5
20260503201529 23 311 14.5 0.0 0.00 0.00 0.00 32 1013.9
20260503200027 23 320 8.0 0.0 0.00 0.00 0.00 32 1014.0
20260503194525 23 284 16.1 0.0 0.00 0.00 0.00 35 1014.3
20260503193035 23 335 12.9 0.0 0.00 0.00 0.00 34 1014.6
20260503191522 23 298 9.7 0.0 0.00 0.00 0.00 34 1014.8
20260503190029 23 5 9.7 0.0 0.00 0.00 0.00 41 1015.0
20260503184519 22 5 12.9 0.0 0.00 0.00 0.00 33 1015.1
20260503183018 22 290 12.9 0.0 0.00 0.00 0.00 36 1015.4
20260503181517 22 314 16.1 0.0 0.00 0.00 0.00 37 1015.4
20260503180018 22 325 14.5 0.0 0.00 0.00 0.00 39 1015.5
20260503174516 22 296 9.7 0.0 0.00 0.00 0.00 37 1015.7
20260503173019 22 313 11.3 0.0 0.00 0.00 0.00 35 1015.9
20260503171511 22 355 12.9 0.0 0.00 0.00 0.00 39 1016.2